EHI
0 0 0 0 0 0 0 0 0 0 0 1 3 7 10 11 12 16 21 23 22 28 36 40 39 38 38 39 36 31 29 27 27 26 25 25 24 22 19 17 16 16 15 15
0 0 0 0 0 0 0 0 0 0 0 1 4 7 9 11 13 16 19 20 22 28 34 37 38 36 36 35 32 28 26 25 24 23 22 22 23 21 19 17 15 14 13 12
0 0 0 0 0 0 0 0 0 0 0 1 3 6 8 10 12 15 16 17 20 27 33 36 36 34 32 30 27 25 24 23 22 21 21 21 22 21 18 17 15 13 11 10
0 0 0 0 0 0 0 0 0 0 0 1 1 3 7 9 11 12 13 15 19 28 34 37 35 32 29 26 24 23 22 21 20 21 22 22 21 20 18 17 15 13 11 10
0 0 0 0 0 0 0 0 0 0 0 0 0 1 4 8 9 10 12 16 22 29 34 34 32 31 29 26 24 22 21 19 20 21 22 20 19 18 16 14 13 12 11 11
0 0 0 0 0 0 0 0 0 0 0 0 0 0 2 6 9 11 15 21 26 30 31 29 30 31 30 28 25 21 19 18 18 19 18 16 14 13 12 10 9 9 9 9
0 0 0 0 0 0 0 0 0 0 0 0 0 0 2 4 8 14 20 25 27 28 28 28 31 31 30 28 26 21 17 16 15 15 14 13 11 10 8 7 6 5 5 5
0 0 0 0 0 0 0 0 0 0 0 0 0 1 3 6 9 14 21 26 27 26 28 31 33 32 28 27 25 22 18 15 14 12 12 11 9 8 7 6 4 4 4 4
0 0 0 0 0 0 0 0 0 0 0 0 0 1 4 8 10 15 22 28 28 27 30 33 33 31 26 24 23 22 19 15 12 10 9 9 8 7 6 4 3 3 3 3
0 0 0 0 0 0 0 0 0 0 0 0 0 1 4 8 11 17 25 29 31 31 32 33 31 26 21 19 19 19 17 15 11 8 7 7 7 6 4 2 1 1 1 1
0 0 0 0 0 0 0 0 0 0 0 0 0 0 2 6 12 21 28 31 33 33 32 32 27 19 15 15 15 14 14 13 10 7 6 6 6 6 4 2 0 0 0 1
0 0 0 0 0 0 0 0 0 0 0 0 0 1 2 5 12 22 28 31 32 30 29 27 22 15 13 14 12 10 9 9 8 7 6 6 6 5 4 2 1 1 1 2
0 0 0 0 0 0 0 0 0 0 0 0 0 1 3 7 12 19 24 27 28 26 24 21 18 15 14 13 11 8 7 6 5 5 6 6 5 4 3 3 3 2 2 2
0 0 0 0 0 0 0 0 0 0 0 0 0 1 3 9 13 17 20 22 22 22 19 17 16 16 15 13 10 8 7 6 4 4 4 4 4 3 3 3 2 2 1 1
0 0 0 0 0 0 0 0 0 0 0 0 0 1 5 10 14 16 17 17 18 18 15 14 15 15 13 10 9 8 7 6 4 3 3 3 3 3 2 1 1 1 0 0
0 0 0 0 0 0 0 0 0 0 0 0 1 3 8 10 12 13 14 14 15 15 13 12 13 12 10 8 7 8 8 6 4 3 3 3 3 2 1 0 0 0 0 0
0 0 0 0 0 0 0 0 0 0 0 1 3 6 9 10 10 11 11 11 12 13 11 9 9 9 7 5 5 6 6 4 3 3 3 3 2 1 0 0 0 0 0 0
0 0 0 0 0 0 0 0 0 0 1 3 6 9 10 9 10 10 9 9 10 10 9 6 5 5 4 3 3 4 4 3 3 3 2 1 1 0 0 0 0 0 0 0
0 0 0 0 0 0 0 0 0 0 3 6 9 11 10 10 10 9 9 9 9 8 7 5 2 2 2 1 1 2 2 2 2 1 1 0 0 0 0 0 0 0 0 0
0 0 0 0 0 0 0 0 0 1 3 7 10 10 9 10 12 11 11 11 10 8 6 3 1 1 1 0 1 1 1 1 1 0 0 0 0 0 0 0 0 0 0 0
0 0 0 0 0 0 0 0 1 1 4 8 10 10 9 10 13 14 13 12 11 7 3 1 0 0 0 0 1 0 0 0 0 0 0 0 0 0 0 0 0 0 0 0
0 0 0 0 0 0 0 1 1 2 5 8 10 10 9 9 11 12 12 10 8 5 1 0 0 0 0 0 0 0 0 0 0 0 0 0 0 0 0 0 0 0 0 0
0 0 0 0 0 1 1 1 1 3 6 8 8 8 8 7 7 7 7 5 3 1 0 0 0 0 0 0 0 0 0 0 0 0 0 0 0 0 0 0 0 0 0 0
0 0 0 0 0 1 1 1 2 3 6 7 6 4 4 5 4 4 3 2 0 0 0 0 0 0 0 0 0 0 0 0 0 0 0 0 0 0 0 0 0 0 0 0
0 0 0 0 0 0 0 1 3 4 4 5 4 2 3 4 3 2 1 0 0 0 0 0 0 0 0 0 0 0 0 0 0 0 0 0 0 0 0 0 0 0 0 0
0 0 0 0 0 0 1 2 3 4 3 2 2 1 2 3 3 1 0 0 0 0 0 0 0 0 0 0 0 0 0 0 0 0 0 0 0 0 0 0 0 0 0 0
Wind_Speed
12 12 12 12 13 13 12 11 10 9 9 10 8 9 10 9 8 8 10 11 11 10 11 10 9 8 7 6 6 6 5 4 3 2 1 1 2 1 2 3 3 3 3 3
11 14 12 10 10 11 12 10 8 6 7 7 7 8 10 11 13 11 10 11 12 12 11 10 9 8 7 7 7 6 5 4 3 2 1 1 1 1 2 2 2 2 2 3
14 11 11 11 11 12 13 9 8 7 7 7 7 7 8 10 10 10 11 12 12 13 13 11 10 8 7 7 6 6 5 4 2 2 1 1 1 1 1 1 2 2 2 2
12 9 9 10 11 10 10 9 9 10 8 7 11 8 9 10 10 10 11 11 12 13 13 12 10 9 7 7 6 6 6 4 2 2 1 1 1 1 2 2 2 2 2 2
9 10 11 11 11 10 9 8 8 11 10 9 8 8 6 10 12 12 10 10 10 11 12 11 11 10 8 8 7 6 5 4 3 2 2 1 2 2 2 2 2 1 1 2
11 8 9 9 9 8 8 8 10 9 9 12 11 9 6 7 10 12 12 11 10 11 12 10 10 9 9 8 7 6 5 4 3 3 3 2 3 3 2 2 1 1 2 3
11 11 9 9 9 9 9 7 5 6 7 9 9 8 5 7 8 11 13 13 12 11 11 12 12 11 10 9 8 7 6 5 5 4 4 4 3 2 2 2 2 2 2 3
6 8 9 9 9 8 9 9 6 5 6 8 9 6 5 6 6 10 11 13 12 11 11 11 11 10 9 9 8 8 7 6 5 5 4 3 3 3 3 4 3 3 3 3
3 6 8 10 9 10 10 9 9 7 10 9 6 3 5 8 10 10 11 10 11 11 10 11 11 10 9 8 8 8 7 6 4 5 4 4 4 4 3 3 3 3 3 3
5 7 9 9 8 10 10 8 5 6 8 8 5 3 1 7 9 10 11 10 9 10 10 10 10 10 9 8 7 7 6 6 5 5 3 3 3 3 2 3 3 3 3 3
6 6 7 7 8 8 8 10 9 6 7 7 5 2 2 3 5 7 10 11 10 9 9 9 8 9 9 8 8 6 6 5 5 5 4 3 3 2 2 2 2 2 2 2
4 4 5 7 7 7 8 9 8 6 7 8 5 2 3 5 5 7 9 10 11 10 10 10 8 8 8 8 7 6 5 5 4 4 4 3 3 3 2 2 2 2 2 3
3 3 4 5 5 6 7 8 8 7 6 6 6 2 4 6 7 6 9 10 11 11 10 9 9 8 7 7 6 6 5 5 4 4 5 4 3 3 3 2 3 3 3 3
4 5 6 7 6 7 7 8 8 7 5 5 4 3 4 5 7 6 7 10 11 11 10 9 8 7 7 7 6 6 5 5 5 5 5 4 3 3 2 3 3 3 3 3
4 6 7 8 8 7 8 9 7 6 5 4 1 2 4 6 8 7 7 10 11 11 10 9 8 7 7 6 6 5 5 5 5 5 4 4 4 3 3 3 2 2 2 3
4 5 7 9 8 7 7 7 5 5 5 3 1 3 5 6 8 8 6 9 11 10 9 9 8 8 7 6 6 6 5 5 4 4 4 4 3 3 3 2 1 1 2 3
4 5 6 6 8 7 6 5 4 3 3 3 1 4 6 6 7 7 5 6 8 9 9 8 8 7 7 6 5 5 5 5 4 4 4 3 3 3 2 1 2 2 2 2
5 5 4 6 8 7 1 1 1 1 2 4 6 7 6 8 9 8 6 6 7 8 8 7 7 7 6 6 5 5 5 5 5 4 3 3 2 3 2 2 2 2 1 1
4 4 5 5 6 4 2 1 1 0 3 5 6 6 6 9 11 8 6 7 7 8 8 8 7 7 6 6 6 5 5 5 4 4 3 3 2 2 2 2 2 1 1 1
6 5 5 4 4 3 1 2 3 1 3 4 5 6 7 6 4 5 7 8 9 9 8 8 7 7 6 6 6 5 5 5 4 4 3 3 2 1 2 2 1 1 1 1
7 7 7 6 3 0 3 3 1 2 3 4 5 6 5 3 4 9 10 9 9 9 9 9 8 6 6 6 5 5 5 4 4 4 3 2 2 1 2 1 0 1 1 1
4 4 4 4 2 0 3 2 3 5 5 5 7 7 7 9 11 11 10 10 9 9 9 8 7 6 6 6 6 6 5 4 4 3 3 3 2 1 2 1 1 2 2 2
1 1 2 2 2 4 5 7 6 5 6 6 7 8 9 10 9 10 9 9 9 8 8 8 8 7 6 5 5 5 5 4 4 3 3 2 2 1 1 2 2 2 2 2
3 3 3 2 5 5 6 6 6 7 7 7 8 9 9 9 9 10 9 9 8 8 8 8 8 8 6 6 5 4 4 4 3 3 2 2 2 2 2 2 2 1 1 2
1 1 2 4 5 6 5 6 8 8 8 8 8 9 9 9 9 9 9 9 8 8 7 7 7 7 7 7 6 5 4 4 3 2 2 3 3 3 2 2 1 1 1 1
1 1 1 3 4 4 6 7 8 8 9 8 8 9 10 9 9 9 8 8 8 7 7 7 8 8 7 7 6 5 4 4 3 3 3 3 3 3 3 3 2 1 3 3
Wind_Direction
210 224 224 217 215 227 241 235 223 211 191 198 190 178 162 162 178 187 164 159 147 139 133 125 119 116 117 113 113 106 102 92 93 98 114 116 109 93 91 87 63 36 15 359
214 225 229 226 227 235 246 238 228 208 198 204 204 191 178 179 188 187 174 164 154 149 141 136 132 129 131 130 121 115 111 110 109 105 100 120 124 127 109 82 81 49 23 351
225 219 211 219 223 235 245 231 229 229 203 201 206 214 205 188 196 185 184 171 164 158 151 146 143 140 140 136 133 128 119 114 101 112 116 96 100 124 106 98 80 35 7 5
232 222 207 218 229 234 244 228 225 228 223 224 225 229 206 195 191 195 191 174 168 160 152 150 148 146 142 135 129 121 118 115 106 96 89 124 121 101 73 55 70 40 8 18
230 213 210 219 222 221 240 244 241 234 233 247 243 260 229 195 195 192 190 171 160 151 149 151 152 148 138 134 128 122 123 120 116 101 92 52 68 77 74 61 51 39 31 32
248 227 222 228 226 227 245 251 251 249 243 244 237 235 238 210 197 189 181 165 154 148 149 150 144 137 133 133 133 129 125 120 114 101 81 63 60 54 53 42 19 17 48 44
229 219 218 222 231 229 232 237 240 246 244 254 248 234 206 219 196 176 164 155 151 151 154 153 145 145 144 142 141 135 127 115 101 91 77 66 63 53 48 27 23 20 39 42
246 226 216 215 222 233 228 229 235 247 264 271 262 232 179 168 133 135 141 144 147 153 149 148 144 143 144 143 142 132 123 115 108 99 87 77 62 48 47 36 26 33 31 29
245 248 236 236 227 237 233 229 240 250 260 257 252 202 138 126 128 130 134 138 146 149 143 141 141 141 139 136 130 125 123 119 112 99 91 85 72 61 53 42 34 38 22 15
214 258 252 236 231 241 255 252 246 263 278 279 271 273 166 145 143 143 142 144 140 144 143 140 141 137 131 126 119 118 120 119 116 112 103 93 81 71 65 53 47 38 18 3
239 244 253 243 231 240 239 250 260 268 273 287 281 296 63 135 142 143 142 139 134 137 137 130 128 128 124 122 118 119 122 122 117 114 106 96 90 77 71 59 44 30 2 346
252 265 254 252 264 264 247 257 262 274 280 285 284 285 63 111 113 121 128 127 130 133 126 123 128 130 127 127 128 132 132 127 125 119 111 98 87 80 70 57 35 18 1 357
293 268 257 255 248 268 257 259 271 272 272 280 281 195 99 90 93 107 126 131 134 133 128 128 131 132 131 132 132 133 132 133 132 129 120 113 98 82 72 56 36 26 16 12
277 259 252 244 241 251 256 266 270 274 277 288 279 187 141 121 115 117 130 134 137 135 135 137 137 135 132 134 135 136 133 132 130 123 118 116 105 94 78 64 42 24 13 12
260 267 268 260 252 248 257 261 262 270 286 286 273 136 152 139 131 133 136 138 135 138 143 144 142 136 133 132 133 129 124 124 120 123 123 114 108 102 85 67 47 24 3 15
213 266 272 273 263 257 266 267 262 270 282 263 160 107 118 117 123 128 137 143 142 147 145 145 143 139 137 136 133 125 128 128 124 125 119 112 110 103 90 76 62 28 13 16
230 249 262 269 270 265 262 266 260 269 307 318 55 112 121 121 122 125 127 137 143 142 141 146 143 137 136 137 135 135 138 134 129 126 122 116 109 106 100 74 66 41 33 21
248 260 269 270 268 260 283 314 277 237 75 73 97 115 130 123 114 108 122 131 142 139 138 136 134 132 132 134 136 137 137 137 137 137 131 118 114 110 101 79 71 47 32 20
219 250 268 266 263 259 229 254 253 64 74 81 107 119 121 124 123 114 123 127 135 133 129 128 132 135 138 139 140 142 140 141 146 145 141 133 117 100 91 74 55 46 23 352
200 221 248 264 271 282 355 10 21 53 121 96 119 132 131 146 154 135 131 126 123 124 127 132 137 140 140 140 144 148 150 150 149 148 144 132 120 107 81 73 39 351 319 318
203 219 239 255 253 125 312 315 315 261 107 103 111 116 124 124 84 119 128 126 122 124 133 137 138 137 140 143 148 153 154 154 151 145 139 135 138 148 122 93 359 301 297 303
221 230 236 259 260 64 352 0 45 76 98 100 101 109 107 103 110 120 124 124 126 131 138 143 141 138 141 150 157 155 154 149 143 144 148 152 165 202 129 149 230 253 259 256
215 23 30 39 97 103 65 75 94 106 100 102 111 114 112 113 122 124 126 127 132 137 141 144 145 142 144 150 156 154 151 150 147 146 151 162 169 180 186 222 236 232 236 252
133 119 122 130 136 120 104 103 100 100 104 109 115 117 118 123 128 129 131 134 139 145 146 149 150 148 146 148 148 144 147 145 146 147 156 181 192 204 217 246 271 283 306 303
121 169 137 135 140 130 115 109 109 110 112 113 118 122 126 130 133 132 135 139 143 145 148 152 151 147 147 149 149 153 153 151 157 170 196 216 210 202 210 209 273 303 25 3
63 92 155 140 140 134 124 119 121 123 120 117 121 122 124 131 135 137 139 142 146 148 150 153 153 152 153 156 159 163 162 169 173 189 212 227 222 211 212 192 179 199 209 205